1495476000.97,17032,19.44,74098.5,3.53,1.97,1.97,0,*7F
1495476002.21,17033,19.44,74096.3,3.53,1.85,1.83,0,*78
1495476003.44,17034,19.44,74102.8,3.55,1.97,1.89,0,*70
1495476004.69,17035,19.44,74100.8,3.53,1.97,1.97,0,*78
1495476005.92,17036,19.44,74098.5,3.55,1.97,1.97,0,*7D
1495476007.16,17037,19.44,74096.5,3.55,1.85,1.85,0,*7C
1495476008.38,17038,19.44,74098.0,3.53,1.75,1.71,0,*71
1495476009.57,17039,19.44,74096.3,3.55,1.79,1.75,0,*7E
1495476010.77,17040,19.38,74096.3,3.53,1.75,1.75,0,*7A
1495476012.01,17041,19.44,74098.0,3.53,1.71,1.75,0,*7F
1495476013.24,17042,19.44,74098.5,3.53,1.83,1.85,0,*7E
1495476014.48,17043,19.44,74096.3,3.53,1.83,1.85,0,*7F
1495476015.66,17044,19.44,74100.5,3.55,1.75,1.75,0,*78
1495476016.87,17045,19.44,74096.8,3.53,1.75,1.83,0,*76
1495476018.08,17046,19.44,74096.8,3.53,1.75,1.83,0,*75
1495476019.33,17047,19.38,74096.5,3.53,1.93,2.01,0,*75
1495476020.59,17048,19.38,74096.3,3.53,1.97,2.01,0,*7E
1495476021.82,17049,19.44,74096.5,3.55,2.01,2.05,0,*71
1495476023.08,17050,19.38,74094.0,3.53,2.01,1.97,0,*77
1495476024.31,17051,19.44,74102.0,3.55,1.97,2.01,0,*70
1495476025.57,17052,19.38,74094.5,3.53,1.85,1.85,0,*79
1495476026.81,17053,19.44,74098.0,3.53,1.75,1.85,0,*77
1495476028.07,17054,19.44,74096.8,3.53,1.85,1.85,0,*7F
1495476029.32,17055,19.44,74096.0,3.53,1.89,1.89,0,*7E
1495476030.55,17056,19.38,74094.5,3.55,2.01,2.01,0,*7B
1495476031.8,17057,19.38,74096.8,3.53,1.97,1.97,0,*7C
1495476033.06,17058,19.44,74096.5,3.53,2.09,2.01,0,*7B
1495476034.29,17059,19.44,74098.0,3.53,1.93,1.83,0,*73
1495476035.54,17060,19.44,74098.0,3.53,1.71,1.71,0,*78
1495476036.78,17061,19.44,74096.0,3.55,1.55,1.63,0,*7A
1495476038.02,17062,19.44,74098.5,3.53,1.59,1.59,0,*7A
1495476039.28,17063,19.44,74096.5,3.53,1.63,1.63,0,*7B
1495476040.5,17064,19.44,74096.8,3.53,1.47,1.41,0,*7A
1495476041.73,17065,19.44,74100.3,3.53,1.37,1.41,0,*7C
1495476042.97,17066,19.44,74100.3,3.53,1.41,1.37,0,*7F
1495476044.19,17067,19.44,74098.0,3.53,1.47,1.41,0,*79
1495476045.44,17068,19.44,74096.3,3.53,1.47,1.51,0,*77
1495476046.64,17069,19.38,74094.0,3.53,1.41,1.41,0,*71
1495476047.87,17070,19.44,74096.3,3.53,1.41,1.37,0,*78
1495476049.11,17071,19.38,74096.3,3.53,1.41,1.37,0,*79
1495476050.35,17072,19.44,74098.0,3.51,1.37,1.37,0,*79
1495476051.62,17073,19.38,74092.5,3.49,1.33,1.37,0,*75
1495476052.79,17074,19.38,74090.3,3.51,1.41,1.41,0,*7F
1495476053.96,17075,19.44,74096.0,3.51,1.41,1.41,0,*7E
1495476055.13,17076,19.44,74096.5,3.51,1.41,1.41,0,*7D
1495476056.39,17077,19.44,74096.3,3.49,1.37,1.43,0,*76
1495476057.65,17078,19.38,74092.8,3.49,1.37,1.47,0,*7D
1495476058.91,17079,19.38,74094.8,3.49,1.43,1.37,0,*78
1495476060.16,17080,19.44,74096.0,3.49,1.43,1.43,0,*7D
1495476061.39,17081,19.44,74096.5,3.51,1.51,1.51,0,*75
1495476062.65,17082,19.44,74098.0,3.49,1.37,1.47,0,*78
1495476063.87,17083,19.44,74098.0,3.51,1.51,1.63,0,*76
1495476065.12,17084,19.38,74094.5,3.49,1.47,1.59,0,*76
1495476066.38,17085,19.38,74092.3,3.49,1.55,1.55,0,*78
1495476067.6,17086,19.44,74094.5,3.51,1.59,1.59,0,*72
1495476068.86,17087,19.44,74098.0,3.49,1.37,1.47,0,*7D
1495476070.12,17088,19.44,74096.8,3.49,1.55,1.55,0,*75
1495476071.37,17089,19.38,74092.8,3.49,1.59,1.59,0,*74
1495476072.62,17090,19.38,74092.8,3.49,1.59,1.71,0,*76
1495476073.87,17091,19.44,74092.8,3.49,1.59,1.71,0,*77
1495476075.12,17092,19.38,74094.0,3.49,1.67,1.71,0,*79
1495476076.37,17093,19.44,74096.0,3.49,1.67,1.67,0,*7F
1495476077.63,17094,19.44,74096.5,3.49,1.55,1.67,0,*79
1495476078.89,17095,19.44,74096.8,3.49,1.71,1.71,0,*79
1495476080.14,17096,19.38,74094.5,3.49,1.67,1.71,0,*7D
1495476081.39,17097,19.38,74092.0,3.49,1.67,1.67,0,*7B
1495476082.64,17098,19.44,74098.5,3.49,1.67,1.67,0,*74
1495476083.89,17099,19.44,74096.3,3.49,1.59,1.67,0,*78
1495476085.14,17100,19.44,74096.8,3.49,1.59,1.67,0,*79
1495476086.4,17101,19.44,74096.3,3.49,1.67,1.67,0,*75
1495476087.64,17102,19.38,74092.5,3.49,1.67,1.71,0,*71
1495476088.89,17103,19.44,74096.0,3.49,1.59,1.71,0,*7D
1495476090.15,17104,19.44,74096.3,3.49,1.67,1.67,0,*70
1495476091.39,17105,19.44,74094.5,3.49,1.59,1.59,0,*71
1495476092.65,17106,19.38,74094.8,3.49,1.43,1.55,0,*75
1495476093.87,17107,19.44,74098.5,3.51,1.51,1.59,0,*72
1495476095.12,17108,19.38,74096.3,3.49,1.59,1.59,0,*7C
1495476096.37,17109,19.38,74092.8,3.49,1.59,1.59,0,*7D
1495476097.62,17110,19.38,74092.3,3.45,1.43,1.63,0,*7B
1495476098.87,17111,19.44,74096.0,3.45,1.67,1.67,0,*78
1495476100.09,17112,19.38,74094.8,3.45,1.67,1.75,0,*78
1495476101.32,17113,19.38,74094.5,3.45,1.67,1.75,0,*79
1495476102.55,17114,19.38,74094.0,3.45,1.63,1.75,0,*7A
1495476103.78,17115,19.38,74096.0,3.45,1.63,1.75,0,*7B
1495476105.01,17116,19.44,74094.5,3.45,1.67,1.75,0,*7C
1495476106.24,17117,19.44,74096.8,3.45,1.67,1.79,0,*71
1495476107.45,17118,19.44,74098.5,3.45,1.75,1.79,0,*7D
1495476108.68,17119,19.44,74098.5,3.45,1.63,1.75,0,*77
1495476109.93,17120,19.38,74096.5,3.45,1.43,1.55,0,*7D
1495476111.18,17121,19.38,74092.3,3.49,1.43,1.55,0,*70
1495476112.43,17122,19.44,74098.5,3.49,1.55,1.59,0,*78
1495476113.68,17123,19.44,74094.5,3.49,1.59,1.71,0,*7F
1495476114.93,17124,19.38,74092.8,3.45,1.63,1.67,0,*7A
1495476116.16,17125,19.38,74098.0,3.45,1.67,1.79,0,*70
1495476117.39,17126,19.44,74096.8,3.45,1.63,1.79,0,*77
1495476118.63,17127,19.38,74094.8,3.45,1.63,1.79,0,*76
1495476119.86,17128,19.38,74094.0,3.45,1.63,1.75,0,*75
1495476121.09,17129,19.44,74098.0,3.45,1.75,1.85,0,*7C
1495476122.3,17130,19.38,74094.5,3.45,1.75,1.79,0,*77
1495476123.52,17131,19.38,74094.5,3.45,1.67,1.79,0,*75
1495476124.73,17132,19.38,74094.8,3.45,1.75,1.79,0,*75
1495476125.94,17133,19.44,74096.3,3.45,1.79,1.79,0,*78
1495476127.14,17134,19.38,74092.8,3.45,1.75,1.75,0,*7F
1495476128.32,17135,19.44,74096.0,3.43,1.75,1.79,0,*74
1495476129.5,17136,19.38,74094.5,3.43,1.75,1.79,0,*77
1495476130.73,17137,19.44,74098.8,3.45,1.67,1.79,0,*73
1495476131.96,17138,19.44,74098.0,3.45,1.67,1.79,0,*7C
1495476133.19,17139,19.44,74096.3,3.45,1.63,1.75,0,*75
1495476134.42,17140,19.38,74096.0,3.45,1.63,1.79,0,*77
1495476135.68,17141,19.38,74094.5,3.45,1.55,1.63,0,*78
1495476136.91,17142,19.38,74096.3,3.43,1.55,1.67,0,*79
1495476138.16,17143,19.38,74098.0,3.45,1.51,1.63,0,*7E
1495476139.36,17144,19.38,74096.3,3.43,1.63,1.75,0,*79
1495476140.57,17145,19.38,74096.3,3.43,1.75,1.85,0,*70
1495476141.77,17146,19.38,74094.3,3.45,1.75,1.79,0,*76
1495476142.98,17147,19.38,74094.3,3.43,1.67,1.75,0,*7E
1495476144.18,17148,19.38,74094.8,3.43,1.63,1.75,0,*75
1495476145.39,17149,19.44,74096.8,3.45,1.75,1.79,0,*79
1495476146.57,17150,19.38,74096.5,3.43,1.75,1.79,0,*77
1495476147.8,17151,19.38,74092.3,3.45,1.67,1.75,0,*7F
1495476149.0,17152,19.44,74098.8,3.45,1.79,1.79,0,*7F
1495476150.24,17153,19.38,74090.8,3.43,1.85,1.85,0,*78
1495476151.49,17154,19.38,74096.3,3.45,1.85,1.89,0,*75
1495476152.71,17155,19.38,74094.3,3.45,1.79,1.89,0,*77
1495476153.96,17156,19.38,74094.8,3.45,1.85,1.89,0,*77
1495476155.18,17157,19.38,74092.3,3.43,1.89,1.93,0,*77
1495476156.4,17158,19.38,74094.0,3.43,1.89,2.01,0,*70
1495476157.63,17159,19.44,74096.3,3.43,1.89,1.93,0,*79
1495476158.85,17160,19.38,74096.8,3.43,1.89,2.01,0,*7B
1495476160.1,17161,19.38,74098.3,3.45,2.01,2.01,0,*7F
1495476161.36,17162,19.38,74094.5,3.45,2.01,2.01,0,*7C
1495476162.58,17163,19.38,74092.0,3.43,2.01,2.01,0,*7B
1495476163.81,17164,19.38,74096.5,3.43,1.89,1.85,0,*70
1495476165.06,17165,19.38,74092.5,3.45,1.89,2.01,0,*78
1495476166.28,17166,19.38,74096.0,3.43,1.89,1.93,0,*75
1495476167.53,17167,19.38,74094.8,3.45,1.89,1.93,0,*72
1495476168.78,17168,19.44,74098.5,3.45,1.85,1.93,0,*71
1495476170.03,17169,19.38,74092.0,3.45,1.89,2.01,0,*74
1495476171.25,17170,19.38,74094.0,3.43,1.89,2.01,0,*7A
1495476172.51,17171,19.38,74092.5,3.45,1.93,2.01,0,*76
1495476173.76,17172,19.38,74096.5,3.45,1.93,2.01,0,*75
1495476174.98,17173,19.44,74098.5,3.43,1.89,2.01,0,*79
1495476176.21,17174,19.44,74098.5,3.43,1.93,2.01,0,*75
1495476177.46,17175,19.38,74094.5,3.45,1.85,1.93,0,*7D
1495476178.71,17176,19.38,74092.3,3.45,1.89,1.93,0,*72
1495476179.93,17177,19.38,74094.0,3.43,1.89,1.93,0,*75
1495476181.16,17178,19.38,74094.0,3.43,1.93,2.01,0,*79
1495476182.38,17179,19.38,74094.0,3.43,1.93,2.01,0,*78
1495476183.61,17180,19.44,74098.8,3.43,1.93,2.01,0,*7E
1495476184.84,17181,19.38,74094.5,3.43,1.93,2.01,0,*7F
1495476186.06,17182,19.38,74098.0,3.43,1.93,1.93,0,*74
1495476187.29,17183,19.38,74096.5,3.43,1.93,2.01,0,*7D
1495476188.54,17184,19.38,74094.5,3.45,2.01,2.01,0,*74
1495476189.79,17185,19.38,74092.8,3.45,2.01,1.93,0,*7D
1495476191.04,17186,19.38,74094.3,3.45,2.01,1.93,0,*7E
1495476192.3,17187,19.38,74094.0,3.45,2.01,2.01,0,*77
1495476193.52,17188,19.44,74098.5,3.43,2.01,2.01,0,*7E
1495476194.77,17189,19.38,74096.3,3.45,2.01,1.93,0,*71
1495476196.0,17190,19.38,74092.3,3.43,2.01,2.01,0,*77
1495476197.23,17191,19.38,74096.3,3.43,2.01,1.93,0,*7E
1495476198.45,17192,19.38,74094.8,3.43,2.05,1.93,0,*79
1495476199.7,17193,19.38,74098.3,3.45,2.05,1.93,0,*7E
1495476200.93,17194,19.38,74094.8,3.45,1.93,1.79,0,*71
1495476202.17,17195,19.38,74098.8,3.45,1.93,1.89,0,*7F
1495476203.38,17196,19.38,74098.0,3.43,1.89,1.79,0,*7E
1495476204.6,17197,19.38,74096.5,3.45,1.79,1.63,0,*7D
1495476205.8,17198,19.44,74098.0,3.43,1.79,1.67,0,*70
1495476207.0,17199,19.38,74098.3,3.43,1.75,1.67,0,*7D
1495476208.21,17200,19.38,74096.5,3.43,1.75,1.55,0,*7F
1495476209.41,17201,19.38,74098.5,3.43,1.75,1.67,0,*7F
1495476210.64,17202,19.38,74096.0,3.45,1.75,1.63,0,*7E
1495476211.89,17203,19.38,74098.0,3.45,1.63,1.55,0,*7D
1495476213.12,17204,19.38,74094.0,3.43,1.63,1.55,0,*7C
1495476214.37,17205,19.38,74096.3,3.45,1.63,1.67,0,*7A
1495476215.62,17206,19.38,74094.8,3.45,1.55,1.67,0,*7C
1495476216.88,17207,19.38,74096.3,3.45,1.55,1.67,0,*7D
1495476218.13,17208,19.38,74094.8,3.45,1.55,1.67,0,*72
1495476219.36,17209,19.38,74096.8,3.45,1.63,1.79,0,*79
1495476220.57,17210,19.38,74092.0,3.45,1.75,1.79,0,*76
1495476221.8,17211,19.38,74092.0,3.45,1.67,1.75,0,*78
1495476223.03,17212,19.38,74094.8,3.45,1.67,1.79,0,*77
1495476224.25,17213,19.38,74092.3,3.45,1.67,1.79,0,*76
1495476225.48,17214,19.38,74094.3,3.43,1.55,1.63,0,*7D
1495476226.74,17215,19.38,74096.0,3.45,1.63,1.67,0,*7B
1495476227.99,17216,19.38,74096.0,3.49,1.59,1.71,0,*7A
1495476229.21,17217,19.38,74094.3,3.43,1.63,1.67,0,*7F
1495476230.44,17218,19.38,74096.5,3.43,1.51,1.55,0,*70
1495476231.68,17219,19.38,74094.3,3.45,1.43,1.43,0,*73
1495476232.9,17220,19.38,74094.8,3.45,1.43,1.41,0,*7B
1495476234.12,17221,19.38,74098.3,3.45,1.43,1.41,0,*7A
1495476235.34,17222,19.44,74098.5,3.43,1.51,1.51,0,*7D
1495476236.57,17223,19.38,74098.8,3.45,1.41,1.43,0,*78
1495476237.79,17224,19.38,74096.5,3.43,1.43,1.55,0,*7C
1495476239.02,17225,19.38,74094.0,3.43,1.29,1.43,0,*76
1495476240.28,17226,19.38,74094.8,3.45,1.21,1.43,0,*7B
1495476241.51,17227,19.38,74096.5,3.43,1.21,1.43,0,*7C
1495476242.74,17228,19.38,74098.3,3.43,1.29,1.55,0,*7C
1495476243.98,17229,19.38,74092.0,3.43,1.21,1.29,0,*7E
1495476245.21,17230,19.38,74098.0,3.43,1.21,1.33,0,*7D
1495476246.47,17231,19.38,74092.5,3.45,1.21,1.43,0,*7D
1495476247.71,17232,19.38,74094.8,3.43,1.21,1.33,0,*7F
1495476248.95,17233,19.38,74096.5,3.43,1.21,1.33,0,*7E
1495476250.19,17234,19.38,74092.0,3.43,1.21,1.33,0,*79
1495476251.41,17235,19.38,74094.3,3.41,1.25,1.41,0,*7B
1495476252.62,17236,19.38,74098.5,3.39,1.29,1.41,0,*7B
1495476253.84,17237,19.38,74096.5,3.41,1.25,1.41,0,*79
1495476255.04,17238,19.38,74096.3,3.39,1.41,1.51,0,*7A
1495476256.27,17239,19.38,74096.5,3.39,1.37,1.47,0,*7D
1495476257.5,17240,19.38,74096.0,3.39,1.37,1.59,0,*7C
1495476258.7,17241,19.44,74098.5,3.39,1.41,1.59,0,*7C
1495476259.92,17242,19.38,74098.3,3.39,1.47,1.59,0,*79
1495476261.17,17243,19.38,74094.3,3.41,1.47,1.59,0,*77
1495476262.4,17244,19.38,74092.0,3.41,1.59,1.75,0,*71
1495476263.63,17245,19.38,74094.8,3.39,1.63,1.85,0,*79
1495476264.89,17246,19.38,74092.5,3.41,1.71,1.85,0,*76
1495476266.13,17247,19.38,74094.3,3.41,1.75,1.85,0,*73
1495476267.35,17248,19.38,74092.5,3.41,1.83,1.97,0,*76
1495476268.58,17249,19.38,74094.3,3.39,1.85,1.97,0,*7E
1495476269.84,17250,19.38,74094.0,3.41,1.85,1.89,0,*76
1495476271.06,17251,19.38,74092.8,3.39,1.89,1.97,0,*7B
1495476272.31,17252,19.44,74098.5,3.41,1.89,1.97,0,*77
1495476273.53,17253,19.38,74098.0,3.39,1.89,1.97,0,*79
1495476274.78,17254,19.38,74092.5,3.41,1.97,1.89,0,*71
1495476276.03,17255,19.38,74098.0,3.41,1.89,1.97,0,*70
1495476277.28,17256,19.38,74094.8,3.41,1.97,1.97,0,*7C
1495476278.53,17257,19.38,74096.3,3.41,1.89,1.97,0,*72
1495476279.78,17258,19.38,74094.8,3.41,1.89,1.89,0,*72
1495476281.03,17259,19.38,74098.0,3.41,1.89,1.97,0,*7C
1495476282.25,17260,19.38,74096.8,3.41,1.83,1.89,0,*73
1495476283.47,17261,19.38,74096.5,3.43,1.89,1.89,0,*7A
1495476284.69,17262,19.38,74094.0,3.43,1.93,1.93,0,*79
1495476285.95,17263,19.38,74094.8,3.45,1.93,2.01,0,*76
1495476287.2,17264,19.38,74094.3,3.41,1.89,1.97,0,*72
1495476288.45,17265,19.38,74098.5,3.41,1.97,1.97,0,*7C
1495476289.68,17266,19.38,74094.8,3.43,1.93,2.01,0,*75
1495476290.93,17267,19.38,74092.5,3.45,1.93,2.01,0,*72
1495476292.16,17268,19.38,74094.0,3.43,1.93,2.01,0,*7B
1495476293.39,17269,19.38,74094.3,3.43,1.93,2.01,0,*7A
1495476294.64,17270,19.38,74094.5,3.45,1.93,2.01,0,*74
1495476295.89,17271,19.38,74090.5,3.45,1.93,1.93,0,*7D
1495476297.11,17272,19.38,74094.8,3.43,1.89,1.93,0,*73
1495476298.33,17273,19.38,74098.5,3.43,1.89,1.93,0,*72
1495476299.58,17274,19.38,74094.0,3.45,1.93,1.93,0,*78
1495476300.83,17275,19.38,74096.5,3.45,1.93,2.01,0,*71
1495476302.08,17276,19.38,74094.8,3.45,1.93,1.93,0,*7A
1495476303.33,17277,19.38,74092.3,3.45,2.01,1.93,0,*73
1495476304.58,17278,19.38,74094.8,3.45,1.93,1.89,0,*7F
1495476305.83,17279,19.38,74096.8,3.45,1.89,1.85,0,*79
1495476307.05,17280,19.38,74094.5,3.43,1.89,1.89,0,*75
1495476308.3,17281,19.38,74094.3,3.45,1.93,1.89,0,*79
1495476309.54,17282,19.38,74094.3,3.45,1.93,1.89,0,*7A
1495476310.79,17283,19.38,74094.0,3.45,1.93,1.89,0,*7B
1495476312.04,17284,19.38,74094.3,3.45,1.89,1.85,0,*7B
1495476313.3,17285,19.38,74092.3,3.45,1.85,1.85,0,*76
1495476314.54,17286,19.38,74096.5,3.43,1.85,1.85,0,*73
1495476315.8,17287,19.38,74096.5,3.45,1.85,1.85,0,*74
1495476317.05,17288,19.38,74092.0,3.45,1.85,1.89,0,*77
1495476318.29,17289,19.38,74096.0,3.45,1.89,1.89,0,*7A
1495476319.54,17290,19.38,74096.0,3.45,1.89,1.93,0,*79
1495476320.79,17291,19.38,74094.0,3.45,1.85,1.89,0,*7F
1495476322.03,17292,19.38,74094.8,3.45,1.89,1.89,0,*70
1495476323.29,17293,19.38,74094.0,3.45,1.85,1.85,0,*71
1495476324.52,17294,19.38,74096.3,3.45,1.79,1.89,0,*79
1495476325.74,17295,19.38,74092.8,3.45,1.79,1.89,0,*78
1495476326.97,17296,19.38,74096.8,3.45,1.79,1.85,0,*77
1495476328.2,17297,19.38,74094.8,3.45,1.79,1.89,0,*7A
1495476329.43,17298,19.38,74092.8,3.45,1.79,1.85,0,*79
1495476330.67,17299,19.38,74096.0,3.45,1.89,1.89,0,*7B
1495476331.93,17300,19.38,74096.8,3.45,1.85,1.93,0,*7D
1495476333.18,17301,19.38,74096.5,3.45,1.85,1.89,0,*77
1495476334.43,17302,19.38,74094.3,3.45,1.85,1.89,0,*74
1495476335.68,17303,19.38,74092.3,3.45,1.85,1.89,0,*75
1495476336.9,17304,19.38,74096.5,3.45,1.79,1.89,0,*71
1495476338.13,17305,19.38,74092.5,3.43,1.85,1.93,0,*7E
1495476339.37,17306,19.38,74092.5,3.45,1.89,1.89,0,*7C
1495476340.62,17307,19.38,74096.0,3.45,1.89,2.01,0,*7E
1495476341.87,17308,19.38,74096.5,3.45,1.93,1.93,0,*72
1495476343.12,17309,19.38,74096.5,3.45,1.93,1.93,0,*73
1495476344.35,17310,19.38,74094.8,3.43,1.93,2.01,0,*75
1495476345.6,17311,19.38,74096.5,3.45,1.93,2.05,0,*76
1495476346.85,17312,19.38,74092.8,3.45,1.93,1.93,0,*79
1495476348.1,17313,19.38,74096.0,3.45,1.89,2.01,0,*7B
1495476349.36,17314,19.38,74096.3,3.45,2.01,2.01,0,*7F
1495476350.61,17315,19.38,74100.0,3.45,2.01,2.05,0,*7A
1495476351.86,17316,19.38,74094.8,3.45,1.93,2.05,0,*71
1495476353.12,17317,19.38,74096.0,3.45,2.01,2.05,0,*78
1495476354.37,17318,19.38,74098.8,3.45,2.01,2.05,0,*77
1495476355.63,17319,19.38,74096.0,3.45,1.93,2.05,0,*7E
1495476356.88,17320,19.38,74094.0,3.45,2.01,2.05,0,*7C
1495476358.14,17321,19.38,74092.8,3.45,2.01,2.05,0,*7D
1495476359.39,17322,19.38,74096.0,3.45,2.01,2.05,0,*7E
1495476360.65,17323,19.38,74094.8,3.45,2.01,2.05,0,*7F
1495476361.9,17324,19.38,74096.5,3.45,2.01,2.05,0,*78
1495476363.16,17325,19.38,74096.0,3.45,2.13,2.13,0,*7D
1495476364.42,17326,19.38,74094.8,3.49,2.09,2.17,0,*7D
1495476365.68,17327,19.38,74094.3,3.49,2.09,2.17,0,*7C
1495476366.94,17328,19.38,74098.0,3.49,2.09,2.09,0,*7C
1495476368.2,17329,19.38,74096.8,3.49,2.17,2.17,0,*7D
1495476369.47,17330,19.38,74098.0,3.49,2.09,2.17,0,*7A
1495476370.72,17331,19.38,74098.0,3.49,2.05,2.09,0,*78
1495476371.98,17332,19.38,74096.0,3.49,2.05,2.09,0,*7B
1495476373.24,17333,19.38,74094.5,3.49,2.05,2.05,0,*76
1495476374.49,17334,19.38,74092.5,3.49,2.05,2.05,0,*71
1495476375.75,17335,19.38,74094.8,3.49,2.09,2.05,0,*7C
1495476377.01,17336,19.38,74098.3,3.49,2.09,2.17,0,*7C
1495476378.27,17337,19.38,74094.3,3.49,2.09,2.09,0,*72
1495476379.53,17338,19.38,74096.0,3.49,2.17,2.21,0,*78
1495476380.79,17339,19.38,74096.5,3.49,2.09,2.17,0,*73
1495476382.02,17340,19.38,74098.0,3.51,2.13,2.13,0,*7B
1495476383.28,17341,19.38,74098.5,3.49,2.09,2.09,0,*73
1495476384.54,17342,19.38,74096.5,3.49,2.09,2.09,0,*70
1495476385.8,17343,19.38,74098.0,3.49,2.09,2.09,0,*71
1495476387.05,17344,19.38,74096.0,3.49,2.09,2.09,0,*76
1495476388.31,17345,19.38,74096.5,3.49,2.09,2.09,0,*77
1495476389.57,17346,19.38,74098.5,3.49,2.17,2.09,0,*7B
1495476390.83,17347,19.38,74096.5,3.49,2.05,1.97,0,*7D
1495476392.08,17348,19.38,74096.5,3.49,2.05,1.93,0,*76
1495476393.33,17349,19.38,74094.8,3.49,2.05,1.97,0,*73
1495476394.59,17350,19.38,74096.5,3.49,2.05,2.05,0,*73
1495476395.85,17351,19.38,74098.0,3.49,2.17,2.05,0,*71
1495476397.08,17352,19.38,74098.8,3.51,2.13,2.09,0,*73
1495476398.34,17353,19.38,74098.5,3.49,2.09,2.05,0,*7C
1495476399.59,17354,19.38,74098.3,3.49,2.09,1.97,0,*73
1495476400.82,17355,19.38,74098.0,3.51,2.21,2.01,0,*7D
1495476402.07,17356,19.38,74096.5,3.49,2.09,1.97,0,*71
1495476403.32,17357,19.38,74096.3,3.49,2.09,1.93,0,*74
1495476404.56,17358,19.38,74096.0,3.51,2.01,1.85,0,*7D
1495476405.79,17359,19.38,74096.8,3.49,1.93,1.79,0,*7E
1495476407.02,17360,19.38,74098.5,3.49,1.89,1.79,0,*7F
1495476408.25,17361,19.38,74096.5,3.49,1.83,1.67,0,*7B
1495476409.45,17362,19.38,74094.3,3.51,1.83,1.71,0,*76
1495476410.68,17363,19.38,74098.3,3.49,1.79,1.47,0,*7E
1495476411.93,17364,19.38,74096.5,3.49,1.71,1.47,0,*71
1495476413.19,17365,19.38,74096.5,3.49,1.71,1.37,0,*77
1495476414.45,17366,19.38,74096.8,3.49,1.59,1.37,0,*7E
1495476415.7,17367,19.38,74096.8,3.49,1.47,1.25,0,*73
1495476416.95,17368,19.38,74098.5,3.49,1.43,1.17,0,*79
1495476418.22,17369,19.38,74100.3,3.49,1.33,1.09,0,*70
1495476419.46,17370,19.38,74096.0,3.51,1.21,0.91,0,*42
1495476420.71,17371,19.38,74098.5,3.49,0.87,0.95,0,*73
1495476421.9,17372,19.38,74098.0,3.51,0.79,0.97,0,*7A
1495476423.12,17373,19.38,74098.3,3.49,0.71,0.97,0,*7A
1495476424.33,17374,19.38,74098.8,3.49,0.59,0.97,0,*77
1495476425.57,17375,19.38,74096.0,3.49,0.51,0.95,0,*7C
1495476426.79,17376,19.38,74096.0,3.49,0.59,1.05,0,*4F
1495476428.01,17377,19.38,74100.0,3.49,0.63,1.05,0,*47
1495476429.23,17378,19.38,74092.3,3.45,0.59,1.05,0,*4D
1495476430.48,17379,19.38,74094.8,3.49,0.63,1.17,0,*4A
1495476431.73,17380,19.38,74096.0,3.49,0.71,1.09,0,*40
1495476432.97,17381,19.38,74096.3,3.45,0.59,1.13,0,*4C
1495476434.21,17382,19.38,74096.0,3.45,0.55,0.95,0,*7C
1495476435.43,17383,19.38,74096.5,3.45,0.59,1.01,0,*4D
1495476436.66,17384,19.38,74096.3,3.45,0.67,0.79,0,*79
1495476437.88,17385,19.38,74098.0,3.51,0.75,0.75,0,*72
1495476439.13,17386,19.38,74096.3,3.49,0.83,0.83,0,*78
1495476440.36,17387,19.38,74096.0,3.43,0.91,0.79,0,*75
1495476441.6,17388,19.38,74096.3,3.45,0.79,0.67,0,*75
1495476442.82,17389,19.38,74094.8,3.43,0.71,0.59,0,*77
1495476444.06,17390,19.38,74094.0,3.45,0.71,0.59,0,*79
1495476445.28,17391,19.38,74094.8,3.43,0.67,0.59,0,*79
1495476446.49,17392,19.38,74096.0,3.43,0.59,0.59,0,*77
1495476447.71,17393,19.38,74098.0,3.43,0.59,0.59,0,*76
1495476448.92,17394,19.38,74096.3,3.43,0.67,0.59,0,*7C
1495476450.13,17395,19.38,74094.5,3.43,0.67,0.79,0,*7F
1495476451.36,17396,19.38,74096.0,3.43,0.79,0.91,0,*75
1495476452.58,17397,19.38,74092.5,3.41,0.79,0.97,0,*70
1495476453.77,17398,19.38,74098.3,3.39,0.87,1.01,0,*4F
1495476455.03,17399,19.38,74094.8,3.41,0.87,1.09,0,*49
1495476456.26,17400,19.38,74094.0,3.41,0.97,1.17,0,*40
1495476457.53,17401,19.38,74094.0,3.41,1.17,1.37,0,*7A
1495476458.79,17402,19.38,74092.5,3.41,1.17,1.25,0,*7A
1495476460.05,17403,19.38,74092.0,3.41,1.13,1.29,0,*73
1495476461.32,17404,19.38,74090.5,3.41,1.17,1.37,0,*7F
1495476462.57,17405,19.38,74090.3,3.41,1.25,1.29,0,*70
1495476463.84,17406,19.38,74094.3,3.41,1.29,1.37,0,*70
1495476465.1,17407,19.38,74090.8,3.41,1.25,1.29,0,*72
1495476466.33,17408,19.38,74092.5,3.39,1.25,1.29,0,*72
1495476467.58,17409,19.38,74094.0,3.41,1.25,1.29,0,*7C
1495476468.85,17410,19.38,74092.0,3.41,1.13,1.17,0,*7C
1495476470.08,17411,19.38,74092.0,3.39,1.13,1.17,0,*72
1495476471.32,17412,19.38,74094.8,3.39,1.09,1.17,0,*7A
1495476472.55,17413,19.38,74088.3,3.39,1.09,1.17,0,*7B
1495476473.75,17414,19.38,74094.5,3.39,1.01,1.17,0,*74
1495476474.95,17415,19.38,74090.8,3.39,1.01,1.17,0,*75
1495476476.15,17416,19.38,74094.8,3.39,0.97,1.17,0,*48
1495476477.39,17417,19.38,74092.5,3.39,1.13,1.29,0,*79
1495476478.62,17418,19.38,74088.3,3.39,1.09,1.29,0,*7D
1495476479.88,17419,19.38,74094.5,3.37,1.09,1.33,0,*79
1495476481.11,17420,19.38,74092.5,3.39,1.25,1.51,0,*77
1495476482.34,17421,19.38,74094.3,3.39,1.29,1.51,0,*7A
1495476483.57,17422,19.38,74092.0,3.39,1.25,1.51,0,*75
1495476484.77,17423,19.38,74092.0,3.39,1.17,1.41,0,*74
1495476486.01,17424,19.38,74092.3,3.39,1.13,1.37,0,*76
1495476487.24,17425,19.38,74092.0,3.39,1.13,1.47,0,*70
1495476488.5,17426,19.38,74096.5,3.37,1.13,1.55,0,*7E
1495476489.73,17427,19.38,74092.8,3.39,1.17,1.63,0,*70
1495476490.96,17428,19.38,74096.0,3.39,1.17,1.63,0,*7F
1495476492.19,17429,19.38,74092.5,3.39,1.29,1.71,0,*70
1495476493.45,17430,19.38,74094.8,3.37,1.33,1.59,0,*77
1495476494.71,17431,19.38,74094.3,3.37,1.33,1.67,0,*7B
1495476495.94,17432,19.38,74092.0,3.39,1.51,1.85,0,*7E
1495476497.16,17433,19.38,74092.0,3.39,1.71,1.89,0,*71
1495476498.38,17434,19.38,74094.3,3.39,1.71,1.89,0,*76
1495476499.61,17435,19.38,74098.3,3.41,1.83,1.97,0,*7A
1495476500.83,17436,19.38,74090.5,3.39,1.85,1.97,0,*70
1495476502.06,17437,19.38,74092.8,3.39,1.85,1.97,0,*71
1495476503.28,17438,19.38,74092.3,3.39,1.89,1.89,0,*7D
1495476504.51,17439,19.38,74092.5,3.39,1.85,1.85,0,*7C
1495476505.72,17440,19.38,74094.3,3.39,1.85,1.83,0,*74
1495476506.95,17441,19.38,74096.3,3.39,1.85,1.85,0,*73
1495476508.13,17442,19.38,74094.8,3.39,1.75,1.83,0,*79
1495476509.37,17443,19.38,74092.8,3.39,1.85,1.85,0,*71
1495476510.63,17444,19.38,74094.3,3.41,1.97,1.97,0,*79
1495476511.85,17445,19.38,74088.8,3.39,1.97,1.97,0,*77
1495476513.11,17446,19.38,74088.5,3.41,1.97,1.97,0,*7B
1495476514.36,17447,19.38,74092.0,3.41,1.89,1.85,0,*76
1495476515.58,17448,19.38,74096.3,3.39,1.89,1.89,0,*7A
1495476516.82,17449,19.38,74092.8,3.39,1.85,1.85,0,*7B
1495476518.05,17450,19.38,74094.3,3.39,1.85,1.85,0,*73
1495476519.28,17451,19.38,74094.8,3.39,1.85,1.85,0,*72
1495476520.46,17452,19.38,74092.5,3.39,1.83,1.83,0,*71
1495476521.7,17453,19.38,74092.3,3.39,1.85,1.85,0,*70
1495476522.94,17454,19.38,74096.3,3.41,1.89,1.89,0,*78
1495476524.17,17455,19.38,74092.8,3.39,1.97,1.97,0,*76
1495476525.39,17456,19.38,74092.0,3.39,1.89,1.97,0,*7A
1495476526.64,17457,19.38,74092.8,3.41,1.97,1.97,0,*7B
1495476527.9,17458,19.38,74098.3,3.41,1.97,1.97,0,*74
1495476529.13,17459,19.38,74096.0,3.39,2.01,2.09,0,*72
1495476530.39,17460,19.38,74094.8,3.41,2.01,2.01,0,*7F
1495476531.61,17461,19.38,74094.3,3.39,2.01,2.01,0,*71
1495476532.87,17462,19.38,74098.5,3.41,2.01,2.01,0,*7D
1495476534.13,17463,19.38,74092.0,3.41,2.01,2.01,0,*7C
1495476535.38,17464,19.38,74092.0,3.41,1.97,1.89,0,*74
1495476536.63,17465,19.38,74098.3,3.41,1.89,1.97,0,*75
1495476537.89,17466,19.38,74094.3,3.41,1.97,1.97,0,*79
1495476539.14,17467,19.38,74096.5,3.41,1.97,1.89,0,*77
1495476540.37,17468,19.38,74098.3,3.39,1.89,1.85,0,*74